Powrót do katalogu

STARLINK-32407

AktywnyŁącznośćVLEO
NORAD 62172·PAYLOAD·🇺🇸 United States

Wystrzelony Nov 30, 2024 z Vandenberg Space Force Base

Loading…

Następne Przeloty (najbliższe 24 godziny)

TLE

ŚwieżeSource: CelesTrak SupGP

Epoka: Sep 14, 2026, 21:12 UTC

1 62172C 24225K   26257.88381944  .00028747  00000+0  24096-2 0  2577
2 62172  70.0016  47.3783 0002775 272.5951 157.9989 14.98309181    11

Śledź STARLINK-32407 w czasie rzeczywistym z AllMySat

Download on the App Store